Home   Weather   Carrollton   Past weeks

Flag for USA Past Weather in Carrollton, Texas, USA — Yesterday and Last 2 Weeks

68 °F


Feels Like: 68 °F
Forecast: 65 / 81 °F
Wind: 9 mph from Southeast

Location: Dallas Love Field

Current Time: Oct 25, 2016 at 1:44:30 AM

Latest Report: Oct 25, 2016 at 12:53 AM

Visibility: 10 mi

Pressure: 30.19 "Hg

Humidity: 84%

Dew Point: 63 °F

Location of CarrolltonLocation

Past Weather in Carrollton — Graph


Carrollton Temperature Yesterday

Maximum temperature yesterday: 84 °F (at 3:53 PM)
Minimum temperature yesterday: 67 °F (at 6:53 AM)
Average temperature yesterday: 74 °F

High & Low Weather Summary for the Past Weeks

High91 °F (Oct 17, 3:53 PM)93% (Oct 15, 2:53 AM)30.29 "Hg (Oct 15, 2:53 AM)
Low53 °F (Oct 22, 6:53 AM)25% (Oct 22, 3:53 PM)29.67 "Hg (Oct 17, 5:53 PM)
Average74 °F62%30.04 "Hg
* Reported Oct 9 11:53 PM — Oct 24 11:53 PM, Carrollton, Weather by CustomWeather, © 2016

Note: Actual official high and low records may vary slightly from our data, if they occured in-between our weather recording intervals... More about our weather records


Carrollton Weather History for the Previous 24 Hours

Scroll right to see more
Time TempWeatherWind HumidityBarometerVisibility
11:53 PM
Mon, Oct 24
69 °FClear.9 mph84%30.19 "Hg10 mi
10:53 PM71 °FClear.10 mph78%30.20 "Hg10 mi
9:53 PM72 °FClear.10 mph76%30.20 "Hg10 mi
8:53 PM73 °FClear.9 mph76%30.19 "Hg10 mi
7:53 PM75 °FPassing clouds.10 mph71%30.18 "Hg10 mi
6:53 PM78 °FPassing clouds.17 mph62%30.16 "Hg10 mi
5:53 PM81 °FPassing clouds.10 mph56%30.15 "Hg10 mi
4:53 PM83 °FScattered clouds.13 mph50%30.16 "Hg10 mi
3:53 PM84 °FScattered clouds.12 mph48%30.16 "Hg10 mi
2:53 PM81 °FScattered clouds.12 mph56%30.17 "Hg10 mi
1:53 PM82 °FScattered clouds.9 mph55%30.19 "Hg10 mi
12:53 PM80 °FBroken clouds.9 mph58%30.22 "Hg10 mi
11:53 AM78 °FPartly sunny.6 mph62%30.24 "Hg10 mi
10:53 AM74 °FPartly sunny.8 mph69%30.25 "Hg10 mi
9:53 AM70 °FPartly sunny.9 mph76%30.25 "Hg10 mi
8:53 AM68 °FPartly sunny.10 mph78%30.24 "Hg10 mi
7:53 AM67 °FPartly sunny.9 mph81%30.22 "Hg10 mi
6:53 AM67 °FPassing clouds.9 mph79%30.20 "Hg10 mi
5:53 AM68 °FPassing clouds.7 mph76%30.18 "Hg10 mi
4:53 AM70 °FPassing clouds.10 mph71%30.17 "Hg10 mi
3:53 AM71 °FOvercast.9 mph68%30.15 "Hg10 mi
2:53 AM71 °FOvercast.10 mph66%30.16 "Hg10 mi
1:53 AM70 °FPassing clouds.6 mph66%30.16 "Hg10 mi
Weather by CustomWeather, © 2016

See weather overviewHow to use our weather pages